Weather History for KIWD - May, 2013

Change the Weather History Date:

Friday, May 24, 2013

  Actual Average Record
Temperature  
Mean Temperature 48 °F -  
Max Temperature 60 °F 62 °F 82 °F (2014)
Min Temperature 35 °F 40 °F 30 °F (2003)
Degree Days  
Heating Degree Days 18    
Moisture  
Dew Point 32 °F    
Average Humidity 39    
Maximum Humidity 81    
Minimum Humidity 31    
Precipitation  
Precipitation 0.00 in - - ()
Sea Level Pressure  
Sea Level Pressure 30.30 in    
Wind  
Wind Speed 5 mph (NNE)    
Max Wind Speed 13 mph    
Max Gust Speed -    
Visibility 10 miles    
Events      
Averages and records for this station are not official NWS values.
T = Trace of Precipitation, MM = Missing Value Source: NWS Daily Summary

Daily Weather History Graph

Daily Weather History Graph

Search for Another Location

Airport or City:

Trip Planner

Search our weather history database for the weather conditions in past years. The results will help you decide how hot, cold, wet, or windy it might be!

Date:

Astronomy

May. 24, 2013 Rise Set
Actual Time 5:17 AM CDT 8:38 PM CDT
Civil Twilight 4:40 AM CDT 9:15 PM CDT
Nautical Twilight 3:51 AM CDT 10:04 PM CDT
Astronomical Twilight 2:50 AM CDT 11:06 PM CDT
Moon 8:18 PM CDT (5/24) 4:52 AM CDT (5/24)
Length of Visible Light 16h 35m
Length of Day
15h 21m
Full, 100% of the Moon is Illuminated
May 24
Full
May 24
Full
May 31
Last Quarter
Jun 8
New
Jun 16
First Quarter

Hourly Weather History & Observations

Time (CDT) Temp. Dew Point Humidity Pressure Visibility Wind Dir Wind Speed Gust Speed Precip Events Conditions
7:15 AM 35.6 °F 30.2 °F 81% 30.40 in 10.0 mi Calm Calm - N/A   Clear
8:35 AM 48.2 °F 33.8 °F 58% 30.40 in 10.0 mi SSE 5.8 mph - N/A   Clear
9:35 AM 51.8 °F 28.4 °F 41% 30.39 in 10.0 mi Calm Calm - N/A   Clear
10:35 AM 55.4 °F 30.2 °F 38% 30.38 in 10.0 mi East 4.6 mph - N/A   Clear
10:55 AM 55.4 °F 30.2 °F 38% 30.37 in 10.0 mi North 3.5 mph - N/A   Clear
11:15 AM 55.4 °F 32.0 °F 41% 30.36 in 10.0 mi South 4.6 mph - N/A   Clear
11:35 AM 55.4 °F 30.2 °F 38% 30.36 in 10.0 mi Calm Calm - N/A   Clear
11:55 AM 57.2 °F 30.2 °F 36% 30.35 in 10.0 mi East 3.5 mph - N/A   Clear
12:15 PM 57.2 °F 30.2 °F 36% 30.35 in 10.0 mi South 4.6 mph - N/A   Clear
12:35 PM 59.0 °F 32.0 °F 36% 30.34 in 10.0 mi SW 6.9 mph - N/A   Clear
12:55 PM 59.0 °F 30.2 °F 34% 30.34 in 10.0 mi WNW 3.5 mph - N/A   Clear
1:15 PM 60.8 °F 32.0 °F 34% 30.32 in 10.0 mi Calm Calm - N/A   Clear
1:35 PM 60.8 °F 30.2 °F 31% 30.32 in 10.0 mi Calm Calm - N/A   Clear
1:55 PM 60.8 °F 32.0 °F 34% 30.31 in 10.0 mi West 5.8 mph - N/A   Clear
2:15 PM 60.8 °F 32.0 °F 34% 30.30 in 10.0 mi North 6.9 mph - N/A   Clear
2:35 PM 60.8 °F 33.8 °F 36% 30.29 in 10.0 mi North 4.6 mph - N/A   Clear
2:55 PM 60.8 °F 35.6 °F 39% 30.29 in 10.0 mi NNW 8.1 mph - N/A   Clear
3:15 PM 60.8 °F 33.8 °F 36% 30.28 in 10.0 mi North 11.5 mph - N/A   Clear
3:35 PM 60.8 °F 33.8 °F 36% 30.28 in 10.0 mi North 12.7 mph - N/A   Clear
3:55 PM 60.8 °F 32.0 °F 34% 30.27 in 10.0 mi NE 9.2 mph - N/A   Clear
4:15 PM 60.8 °F 32.0 °F 34% 30.26 in 10.0 mi NNE 9.2 mph - N/A   Clear
4:35 PM 60.8 °F 33.8 °F 36% 30.25 in 10.0 mi NNE 8.1 mph - N/A   Clear
4:55 PM 60.8 °F 33.8 °F 36% 30.25 in 10.0 mi North 9.2 mph - N/A   Clear
5:15 PM 60.8 °F 33.8 °F 36% 30.25 in 10.0 mi NNE 9.2 mph - N/A   Clear
5:35 PM 60.8 °F 32.0 °F 34% 30.25 in 10.0 mi North 8.1 mph - N/A   Clear
5:55 PM 57.2 °F 32.0 °F 38% 30.26 in 10.0 mi NNE 10.4 mph - N/A   Clear
6:15 PM 59.0 °F 32.0 °F 36% 30.26 in 10.0 mi North 10.4 mph - N/A   Clear
6:35 PM 59.0 °F 32.0 °F 36% 30.26 in 10.0 mi NNE 8.1 mph - N/A   Clear
6:55 PM 57.2 °F 30.2 °F 36% 30.26 in 10.0 mi North 6.9 mph - N/A   Clear
7:15 PM 57.2 °F 32.0 °F 38% 30.26 in 10.0 mi North 6.9 mph - N/A   Clear
7:35 PM 57.2 °F 32.0 °F 38% 30.26 in 10.0 mi North 4.6 mph - N/A   Clear
7:55 PM 57.2 °F 32.0 °F 38% 30.27 in 10.0 mi NNE 3.5 mph - N/A   Clear
8:15 PM 55.4 °F 33.8 °F 44% 30.26 in 10.0 mi ENE 4.6 mph - N/A   Clear
8:35 PM 53.6 °F 33.8 °F 47% 30.26 in 10.0 mi East 5.8 mph - N/A   Clear